Salina, KS

10:33 AM CST on December 06, 2016 (GMT -0600)
Salina Municipal

Weather History for KSLN - November, 2014

Change the Weather History Date:

Tuesday, November 4, 2014

  Actual Average Record
Temperature  
Mean Temperature 50 °F 50 °F  
Max Temperature 57 °F 61 °F 81 °F (1978)
Min Temperature 42 °F 39 °F 10 °F (1991)
Degree Days  
Heating Degree Days 15 15  
Month to date heating degree days 52 58  
Since 1 July heating degree days 286 376  
Cooling Degree Days 0 0  
Month to date cooling degree days 0 0  
Year to date cooling degree days 1801 1646  
Moisture  
Dew Point 35 °F    
Average Humidity 57    
Maximum Humidity 76    
Minimum Humidity 38    
Precipitation  
Precipitation 0.00 in 0.05 in 0.28 in (1956)
Month to date precipitation T 0.20  
Year to date precipitation 26.98 29.51  
Sea Level Pressure  
Sea Level Pressure 30.21 in    
Wind  
Wind Speed 8 mph (West)    
Max Wind Speed 17 mph    
Max Gust Speed 21 mph    
Visibility 10 miles    
Events      
T = Trace of Precipitation, MM = Missing Value Source: NWS Daily Summary

Daily Weather History Graph

Daily Weather History Graph

Search for Another Location

Airport or City:

Trip Planner

Search our weather history database for the weather conditions in past years. The results will help you decide how hot, cold, wet, or windy it might be!

Date:

Astronomy

Nov. 04, 2014 Rise Set
Actual Time 7:00 AM CST 5:26 PM CST
Civil Twilight 6:33 AM CST 5:54 PM CST
Nautical Twilight 6:01 AM CST 6:26 PM CST
Astronomical Twilight 5:30 AM CST 6:57 PM CST
Moon 4:13 PM CST (11/4) 4:21 AM CST (11/4)
Length of Visible Light 11h 21m
Length of Day
10h 25m
Waxing Gibbous, 94% of the Moon is Illuminated
Nov 4
Waxing Gibbous
Nov 6
Full
Nov 14
Last Quarter
Nov 22
New
Nov 29
First Quarter

Hourly Weather History & Observations

Time (CST) Temp. Windchill Dew Point Humidity Pressure Visibility Wind Dir Wind Speed Gust Speed Precip Events Conditions
12:53 AM 46.0 °F 40.6 °F 36.0 °F 68% 30.17 in 10.0 mi NNW 11.5 mph - N/A   Clear
1:53 AM 46.0 °F 41.0 °F 36.0 °F 68% 30.15 in 10.0 mi NW 10.4 mph - N/A   Clear
2:53 AM 45.0 °F 40.1 °F 36.0 °F 71% 30.16 in 10.0 mi NW 9.2 mph - N/A   Clear
3:53 AM 44.1 °F 40.1 °F 36.0 °F 73% 30.17 in 10.0 mi NW 6.9 mph - N/A   Clear
4:53 AM 43.0 °F 38.2 °F 35.1 °F 74% 30.17 in 10.0 mi NW 8.1 mph - N/A   Clear
5:53 AM 43.0 °F 38.2 °F 35.1 °F 74% 30.19 in 10.0 mi WNW 8.1 mph - N/A   Clear
6:53 AM 42.1 °F 38.4 °F 35.1 °F 76% 30.20 in 10.0 mi WNW 5.8 mph - N/A   Clear
7:53 AM 42.1 °F 37.1 °F 35.1 °F 76% 30.25 in 10.0 mi NW 8.1 mph - N/A   Clear
8:53 AM 44.1 °F 39.0 °F 35.1 °F 71% 30.27 in 10.0 mi NW 9.2 mph - N/A   Clear
9:53 AM 46.0 °F 41.4 °F 35.1 °F 66% 30.27 in 10.0 mi NW 9.2 mph - N/A   Clear
10:53 AM 48.0 °F - 35.1 °F 61% 30.28 in 10.0 mi WNW 9.2 mph - N/A   Clear
11:53 AM 50.0 °F - 34.0 °F 54% 30.27 in 10.0 mi WNW 6.9 mph - N/A   Clear
12:53 PM 53.1 °F - 34.0 °F 48% 30.24 in 10.0 mi WNW 5.8 mph - N/A   Clear
1:53 PM 55.9 °F - 30.9 °F 39% 30.22 in 10.0 mi WSW 4.6 mph - N/A   Clear
2:53 PM 55.9 °F - 34.0 °F 44% 30.21 in 10.0 mi South 5.8 mph - N/A   Clear
3:53 PM 55.0 °F - 34.0 °F 45% 30.20 in 10.0 mi South 6.9 mph - N/A   Clear
4:53 PM 52.0 °F - 35.1 °F 53% 30.21 in 10.0 mi South 6.9 mph - N/A   Clear
5:53 PM 48.9 °F - 35.1 °F 59% 30.21 in 10.0 mi South 9.2 mph - N/A   Clear
6:53 PM 46.9 °F - 37.0 °F 68% 30.20 in 10.0 mi South 10.4 mph - N/A   Clear
7:53 PM 46.9 °F - 37.0 °F 68% 30.21 in 10.0 mi SSW 8.1 mph - N/A   Clear
8:53 PM 46.0 °F 41.4 °F 36.0 °F 68% 30.21 in 10.0 mi SSW 9.2 mph - N/A   Clear
9:53 PM 46.0 °F 41.0 °F 36.0 °F 68% 30.22 in 10.0 mi SSW 10.4 mph - N/A   Clear
10:53 PM 44.1 °F 38.6 °F 35.1 °F 71% 30.21 in 10.0 mi SSW 10.4 mph - N/A   Clear
11:53 PM 42.1 °F 36.1 °F 33.1 °F 70% 30.19 in 10.0 mi South 10.4 mph - N/A   Clear